Theta_e
314 316 315 314 313 314 315 315 314 314 315 314 314 313 312 311 311 313 314 314 314 313 313 316 315 314 314 315 317 317 318 319 320 323 327 334 337 338 341 343 342 343 341 337 333 331 331 332 333 332 331 333 333 334 334 333 333 334 335 335 334 335 335 334 333 332 332 332 332 333 332 332 332 332 332 332 332 333 333 333 334 334 333 333 334 334
314 315 315 314 315 316 317 319 320 318 317 317 315 314 312 311 312 314 315 315 315 315 314 315 316 314 315 316 317 318 317 318 322 323 326 333 337 338 340 341 339 338 337 334 334 333 332 333 332 331 332 334 334 334 334 333 332 333 333 334 334 334 333 333 332 332 333 333 333 333 333 333 333 332 331 331 330 331 333 333 334 333 333 333 334 334
314 314 314 314 315 317 317 319 321 321 320 319 317 315 313 314 314 315 318 317 315 316 314 315 316 316 318 318 317 317 319 321 324 326 327 332 336 338 339 339 338 336 335 335 335 334 333 332 330 330 332 333 335 336 335 332 332 333 334 334 335 335 333 332 331 331 332 332 332 332 331 331 330 329 328 327 326 328 331 333 333 333 333 333 334 334
315 313 312 314 314 317 318 319 321 322 321 320 319 316 314 315 314 314 318 318 318 321 320 317 318 322 322 318 318 320 323 324 323 326 327 328 334 339 339 337 336 335 335 336 336 335 333 331 329 331 331 332 333 334 333 332 332 333 333 334 334 333 330 328 329 329 329 330 331 330 329 328 328 327 327 327 328 329 330 331 332 332 332 332 333 333
313 312 312 312 313 315 318 320 322 322 320 320 319 316 314 315 315 315 318 321 326 329 331 324 318 326 328 317 319 322 323 324 322 323 324 326 333 337 339 337 335 334 334 335 336 335 334 331 330 331 331 331 332 331 332 332 332 333 333 333 331 329 328 328 328 328 329 330 329 327 326 327 326 327 328 329 331 331 329 330 331 330 330 331 332 333
312 313 314 313 313 313 316 318 321 322 320 321 323 320 317 317 317 317 318 320 322 324 330 323 314 321 330 320 320 323 319 319 320 323 323 326 333 335 337 336 334 333 333 334 335 334 334 332 331 331 330 331 331 331 332 332 332 333 333 331 329 327 328 327 327 328 329 329 327 325 325 326 326 328 328 329 330 329 329 330 330 329 329 330 330 330
311 314 315 315 315 314 314 315 317 322 321 320 324 322 318 318 318 318 318 316 317 319 326 325 317 322 328 323 321 323 321 319 319 323 322 327 335 335 334 334 333 333 333 333 335 334 333 332 331 331 331 330 331 331 332 332 332 332 332 329 326 327 327 326 326 328 328 326 324 324 325 327 328 327 325 325 327 329 328 327 328 328 328 328 327 328
314 314 314 316 318 317 315 315 317 322 320 320 322 320 317 317 315 318 317 314 317 320 321 322 320 319 321 325 325 322 320 320 318 321 325 331 336 335 333 333 333 333 333 334 335 334 332 331 331 331 331 330 331 332 331 332 333 333 332 329 327 327 327 326 326 327 328 325 323 324 326 328 328 326 325 325 326 326 324 323 326 326 325 326 327 327
317 317 317 317 317 317 316 316 319 320 319 320 320 318 317 315 315 316 314 314 317 318 316 319 320 318 319 325 325 321 319 319 320 324 332 336 335 334 334 334 334 333 333 334 334 334 333 332 332 331 331 331 331 332 332 332 333 333 332 330 329 329 328 327 327 328 328 326 325 326 328 328 327 325 325 325 324 323 323 322 325 326 325 325 326 325
317 319 318 316 315 316 316 317 318 317 318 319 317 317 316 314 315 315 313 315 317 318 317 319 320 318 320 324 322 321 318 319 322 326 333 337 335 334 334 333 334 333 333 333 334 334 333 332 332 332 332 331 331 332 332 332 332 332 332 333 332 332 331 330 330 331 331 329 329 329 328 327 326 325 324 324 324 323 323 323 323 324 324 325 325 324
315 318 317 316 316 316 316 317 317 316 317 317 316 315 314 314 316 315 317 317 315 320 322 320 319 317 321 332 327 320 322 326 329 330 334 336 334 334 335 333 333 333 333 334 334 334 333 332 333 332 332 332 332 332 332 332 331 330 332 333 333 332 332 332 331 332 331 330 330 328 327 326 324 324 324 323 323 322 321 322 322 322 323 325 325 324
313 316 317 316 316 316 316 315 316 316 314 315 316 314 314 317 316 313 314 314 314 322 323 317 318 315 320 334 331 323 329 331 331 333 335 335 335 334 334 333 332 333 334 334 334 334 333 333 333 332 333 332 332 333 332 332 331 329 331 333 332 331 331 331 331 330 330 329 329 326 325 324 323 323 322 322 322 321 321 322 323 323 324 324 324 324
315 315 315 316 317 316 315 314 314 315 314 314 315 314 314 317 317 314 313 314 316 322 322 317 317 317 319 330 331 328 331 331 331 333 335 334 335 335 333 333 333 333 333 334 333 333 333 334 334 332 333 333 333 333 333 333 333 331 332 332 332 331 331 331 330 330 329 327 326 325 324 323 322 322 321 322 322 321 322 323 324 323 324 324 324 324
316 315 313 314 317 315 316 314 312 314 314 314 314 315 317 317 317 316 315 316 316 317 317 314 316 321 323 327 329 329 328 329 333 335 334 334 334 335 333 333 334 333 333 333 333 332 333 333 333 333 333 333 333 334 334 335 335 334 333 332 332 332 332 331 331 330 327 326 325 324 324 323 322 322 322 323 322 321 322 322 322 323 323 324 324 322
316 318 316 314 315 316 316 314 314 316 314 315 316 317 319 319 317 316 317 316 317 321 320 314 317 323 327 328 328 328 326 328 333 334 334 335 334 334 333 333 334 334 333 333 332 333 332 331 332 333 333 333 333 334 335 335 336 335 334 333 334 335 333 331 331 329 326 326 325 324 324 323 322 322 322 323 322 322 322 321 321 321 323 324 323 322
313 317 318 314 314 315 315 315 314 313 316 322 318 312 317 322 319 319 322 320 320 325 324 321 325 329 331 334 329 326 327 328 330 333 334 335 334 334 334 334 335 335 334 334 333 334 334 331 331 333 332 333 334 334 334 334 335 335 335 335 336 336 335 333 331 329 327 326 325 325 325 324 322 322 322 322 321 321 321 321 321 322 323 323 322 323
313 318 319 313 314 315 313 317 314 311 322 330 319 311 316 321 322 323 325 325 322 323 324 326 329 328 329 336 334 328 330 330 330 333 334 334 334 333 334 334 333 333 333 333 333 334 334 332 331 333 332 333 334 333 334 334 334 334 334 335 336 337 336 334 331 330 328 327 326 325 325 325 324 322 322 321 320 320 321 321 323 323 323 323 323 323
318 320 322 315 314 316 312 316 314 311 323 324 317 316 316 314 323 325 322 322 321 320 324 329 330 328 330 335 336 332 331 331 331 332 333 333 333 334 335 335 334 333 333 333 333 334 334 333 332 332 331 331 332 333 333 334 334 334 334 334 335 336 336 335 333 331 329 327 327 326 326 327 325 323 322 321 320 321 322 322 323 323 323 322 321 321
321 319 324 318 314 318 315 313 315 314 315 317 320 323 318 319 328 327 319 320 324 322 322 327 330 331 331 333 336 334 331 332 332 332 333 333 333 335 336 337 337 336 335 333 333 334 333 332 331 331 330 329 330 331 332 333 333 333 333 333 334 334 334 334 334 333 331 329 329 328 328 327 325 322 321 321 321 321 322 323 322 322 322 321 320 320
325 321 325 324 316 318 317 313 316 317 314 314 320 320 319 326 331 330 323 321 327 329 324 327 334 335 331 330 334 334 331 331 332 331 332 332 333 334 335 336 336 335 334 332 331 332 331 329 329 329 329 329 329 329 331 331 332 331 332 333 332 332 333 333 334 333 332 332 331 330 329 327 323 321 322 321 320 321 323 323 322 321 321 319 319 319
323 321 326 330 320 318 320 318 318 319 316 315 316 317 317 321 323 329 327 317 322 333 331 333 338 336 332 328 330 333 331 331 332 331 331 331 330 333 334 334 334 332 333 331 330 331 330 329 328 328 329 329 329 330 330 330 330 331 331 331 331 331 331 332 332 332 331 332 332 330 329 326 323 322 321 321 320 321 323 322 322 321 320 318 317 318
320 323 331 332 322 321 323 319 315 317 317 316 319 318 320 323 322 322 323 319 320 329 332 334 337 334 331 327 328 333 331 329 330 330 331 331 330 331 332 332 332 332 332 331 330 331 330 328 328 327 328 328 328 329 329 329 330 331 330 330 329 330 330 330 331 330 331 331 331 330 329 327 324 322 322 321 321 321 322 321 321 320 318 317 315 315
322 324 326 326 320 320 320 317 318 319 317 315 318 318 318 326 324 320 326 332 330 327 328 333 337 336 333 328 328 330 329 328 329 329 330 331 331 331 330 330 330 330 330 330 330 330 328 327 327 327 327 327 328 328 328 328 329 329 329 329 328 328 328 328 330 330 330 331 331 329 329 327 325 323 322 320 319 319 321 321 320 318 317 316 315 315
324 324 326 330 328 324 321 318 318 318 317 318 319 318 316 318 321 324 331 336 333 328 329 336 337 333 329 328 328 327 327 327 329 329 329 329 331 330 329 328 328 327 328 329 330 329 327 326 327 327 326 327 327 327 327 327 326 326 327 328 328 328 327 328 329 330 329 330 330 330 329 326 324 322 320 318 316 317 319 320 319 317 316 316 315 314
324 326 331 339 337 331 328 323 323 324 322 321 320 319 318 318 323 327 328 330 330 326 329 338 337 328 326 328 328 326 327 326 328 329 329 327 328 327 326 327 328 327 327 327 329 328 327 327 327 327 326 326 325 325 325 326 326 326 326 327 328 328 328 327 328 329 330 330 330 330 328 325 322 320 319 318 316 316 316 316 315 313 313 314 313 313
325 325 328 335 336 334 329 326 329 332 326 321 319 317 318 322 326 325 325 329 330 325 328 335 332 328 329 329 328 327 327 327 328 329 327 325 325 324 324 324 326 327 327 327 328 327 325 325 326 325 325 325 325 325 325 325 324 324 324 325 326 325 325 325 325 325 327 328 329 329 327 325 323 321 319 319 318 317 317 316 314 313 313 314 314 314
327 328 327 329 331 332 327 323 324 325 321 320 319 318 322 326 328 328 324 324 327 330 333 331 328 329 331 329 329 329 328 327 328 326 325 323 323 321 319 319 320 322 323 323 325 325 325 325 325 324 324 324 324 323 323 323 324 324 325 325 324 324 324 325 325 324 324 324 324 325 326 325 324 323 322 321 321 322 322 320 319 318 317 316 316 316
328 330 328 326 325 324 320 319 320 320 319 317 317 322 326 328 330 333 328 323 329 337 335 329 328 330 330 328 329 329 328 327 326 324 323 322 320 319 316 314 313 313 313 313 316 319 321 322 323 322 322 323 324 324 323 322 323 324 324 324 324 323 324 325 325 325 325 325 324 323 323 324 324 324 324 323 322 324 324 323 322 321 320 318 316 315
323 326 326 325 324 321 317 318 323 328 323 316 316 322 325 328 331 334 332 329 336 341 333 328 329 329 328 328 328 328 327 325 323 322 320 318 316 314 312 311 310 309 309 308 308 308 309 310 312 312 312 313 316 319 322 323 324 324 323 323 323 323 323 324 325 325 325 324 324 324 322 323 324 324 324 323 322 323 324 323 322 321 321 320 318 316
320 325 325 322 321 321 319 317 321 330 326 317 317 319 320 326 330 330 331 331 333 334 329 327 327 326 327 327 325 326 325 321 319 318 316 314 313 312 311 311 310 309 308 307 306 305 304 304 304 304 305 305 306 308 311 315 319 321 321 322 322 322 323 323 323 324 324 323 323 323 323 324 324 323 323 324 323 323 324 324 323 322 321 322 320 318
321 325 324 320 320 323 323 321 320 323 321 317 319 320 320 327 329 328 329 330 329 328 325 323 325 325 325 323 324 324 321 318 316 315 313 313 312 311 310 310 308 307 306 305 304 303 303 302 302 302 302 303 303 304 305 307 309 311 315 320 322 322 322 322 322 323 323 322 322 323 323 323 323 323 322 323 323 324 325 324 324 324 323 323 322 320
323 324 321 319 321 323 325 326 322 319 318 320 322 320 320 327 330 328 327 327 326 325 324 323 324 323 321 320 322 321 316 313 312 311 311 310 309 309 309 307 307 306 305 304 302 302 302 301 301 301 301 302 302 303 304 305 305 306 308 314 320 322 321 320 321 321 321 321 322 322 323 322 322 323 322 320 321 324 325 325 324 324 323 323 323 323
325 324 323 321 322 321 320 322 323 320 322 324 322 319 319 324 327 326 326 324 322 321 322 324 324 321 320 321 320 315 311 310 309 309 308 308 307 307 306 306 305 305 303 302 302 301 301 301 300 300 301 302 302 302 302 303 304 304 305 308 312 314 313 312 312 312 312 313 315 318 320 321 321 321 322 321 321 322 323 323 324 324 324 323 323 323
324 326 325 322 322 321 319 323 327 325 323 322 318 315 317 322 324 325 325 324 322 321 320 320 320 319 318 317 313 310 309 308 308 307 307 307 306 306 305 305 304 303 303 302 302 301 301 300 300 300 301 301 302 302 302 302 302 303 303 305 306 306 306 306 306 306 306 306 307 309 311 313 314 317 319 321 321 321 322 322 322 322 322 323 323 323
325 327 326 322 322 321 321 325 328 324 322 321 317 313 315 319 320 321 322 321 321 320 318 318 318 315 312 311 309 308 308 308 307 307 306 306 305 305 305 304 303 303 303 302 302 302 301 301 300 300 300 301 301 301 302 302 302 302 302 304 305 305 305 305 305 304 305 305 305 305 306 307 308 309 312 314 315 316 317 318 320 321 321 321 321 322
325 323 321 322 322 321 321 324 324 321 318 319 317 313 312 314 316 318 320 319 318 319 318 317 315 311 309 309 308 307 307 306 305 305 305 304 304 304 303 302 301 301 302 302 302 302 302 301 301 301 300 300 301 302 302 302 303 302 302 303 304 304 304 304 304 303 304 304 304 304 305 305 305 306 307 308 310 311 312 313 315 317 318 319 320 321
323 321 320 322 321 320 323 322 319 319 318 317 316 313 311 310 311 314 319 319 317 317 317 314 312 311 309 308 306 305 305 305 305 304 303 302 303 302 301 300 299 299 300 300 300 301 301 301 301 300 300 299 300 301 302 302 302 303 302 303 303 304 303 303 303 303 303 303 303 303 303 303 304 304 305 306 307 308 309 310 310 311 312 313 315 317
317 319 321 323 320 320 323 322 318 319 319 316 315 313 311 310 310 313 319 319 317 316 314 312 311 310 308 305 305 306 305 305 306 305 303 302 301 301 302 301 301 300 299 299 299 300 301 300 299 299 299 299 300 300 300 301 301 302 302 302 303 303 303 303 303 303 303 302 302 302 303 303 303 303 304 305 305 306 307 307 308 309 310 310 310 312
314 316 318 322 321 319 320 321 319 319 317 314 313 314 314 313 312 315 319 319 317 315 311 310 309 308 307 306 307 306 306 306 306 305 303 302 302 302 302 302 302 302 301 301 301 301 302 302 301 300 299 300 300 300 300 301 301 302 303 303 304 303 302 302 302 301 301 302 302 302 302 302 303 302 303 303 303 303 304 304 305 306 307 307 307 308
317 319 319 320 321 318 317 319 318 315 314 312 311 312 313 313 315 318 318 318 317 313 309 308 308 307 307 308 309 308 307 305 304 303 303 302 301 301 301 300 301 301 301 301 302 302 302 302 301 301 300 300 301 301 302 302 302 302 302 303 303 302 301 301 301 300 301 301 301 301 301 301 301 301 301 301 301 302 302 302 303 303 303 304 304 305
318 319 317 317 317 316 316 317 315 313 311 310 309 310 310 312 316 318 317 316 314 311 308 308 308 308 308 308 307 307 305 304 303 302 302 301 300 300 300 299 299 299 299 299 300 301 301 301 301 301 301 301 301 301 301 302 302 301 302 302 302 301 301 301 301 301 301 301 301 301 301 301 301 300 301 301 300 301 301 302 302 302 302 303 303 304
314 315 315 315 315 315 316 316 314 313 310 309 310 311 310 314 316 314 312 310 309 308 308 307 307 307 307 305 304 304 303 303 302 302 302 302 301 301 300 300 300 299 299 299 299 300 301 301 301 301 301 301 301 301 301 301 301 301 302 302 302 301 301 301 301 301 301 301 301 301 301 301 301 301 301 301 301 301 301 301 301 301 301 302 302 303
311 312 314 313 311 314 316 314 313 312 311 310 311 311 311 313 313 311 308 307 306 306 306 305 305 305 305 304 304 303 303 302 302 302 302 303 302 301 301 301 300 300 299 299 298 299 300 300 301 301 301 301 301 301 301 301 301 301 302 302 301 301 301 301 301 300 300 300 300 300 300 300 300 300 301 301 301 301 301 301 301 301 301 301 301 301
310 312 314 311 310 313 314 312 311 310 308 308 309 308 307 308 308 307 307 306 305 304 304 304 305 305 304 304 303 303 303 303 303 303 302 303 302 301 300 301 301 300 300 299 299 299 300 300 300 301 301 301 301 301 301 301 301 301 301 301 300 300 300 300 300 300 300 300 300 300 300 300 300 300 300 300 300 300 300 300 300 300 300 300 300 301
309 309 311 310 309 311 311 309 308 307 305 306 306 305 304 305 304 304 304 303 302 302 302 303 304 304 304 304 303 303 303 303 303 303 302 303 302 301 300 300 300 301 300 299 299 299 300 301 301 301 301 301 301 301 301 301 301 300 300 300 300 300 300 300 300 300 299 300 299 299 299 299 299 299 299 299 300 300 299 299 299 300 300 300 300 300
307 307 310 309 307 307 308 307 306 306 305 305 304 304 304 304 303 302 302 302 302 302 301 301 302 302 303 303 302 302 302 302 303 303 303 303 301 300 300 300 300 300 300 300 299 299 299 301 301 301 301 301 301 301 300 300 300 300 300 300 300 300 300 299 299 299 299 299 299 299 299 299 299 299 299 299 299 299 299 299 299 299 299 300 300 300
305 307 309 310 308 308 308 307 306 307 306 305 304 304 304 303 303 302 302 302 303 302 301 301 301 301 302 302 302 302 302 302 302 302 303 304 302 299 299 300 300 300 300 300 299 298 299 300 300 300 300 301 300 300 300 300 300 299 300 299 299 299 299 299 299 299 299 299 298 298 298 298 298 298 298 298 298 298 298 298 298 299 299 299 299 299
305 307 308 308 308 309 308 306 306 307 306 305 305 305 303 303 303 303 302 302 303 302 301 300 301 302 302 303 303 302 302 301 301 301 301 302 301 299 299 300 300 300 300 300 299 298 299 300 300 300 300 300 300 300 299 299 300 299 299 299 299 299 299 299 298 298 298 298 298 298 298 298 298 298 297 297 297 297 297 298 298 298 298 298 298 298
306 308 308 307 307 308 307 305 306 306 305 304 304 304 304 304 304 303 303 303 303 303 302 301 301 301 302 302 302 301 301 301 300 299 300 300 299 299 299 299 299 299 299 299 299 299 299 299 299 299 300 300 299 299 299 299 299 299 299 299 299 299 298 298 298 298 298 298 298 298 297 297 297 297 297 297 297 297 297 297 297 297 297 297 298 298
306 306 307 308 309 308 307 306 307 306 305 304 303 304 305 305 304 304 303 303 303 303 303 302 301 300 301 300 299 300 301 301 299 298 298 299 298 298 298 298 297 298 298 298 298 298 299 299 299 299 299 299 299 299 299 299 299 299 299 299 299 298 298 298 297 297 297 297 297 297 297 297 296 296 296 296 296 296 296 296 296 296 297 297 297 297
305 305 307 309 308 308 307 306 306 306 305 304 304 304 304 304 304 303 303 303 303 302 302 303 303 302 301 300 298 298 299 299 298 297 297 297 297 297 297 297 297 297 298 298 298 298 299 299 299 299 299 299 299 299 299 299 299 299 299 298 298 298 297 297 297 297 296 296 297 297 296 296 295 295 295 295 295 295 295 296 296 296 296 296 296 296
Wind_Speed
5 4 5 6 6 7 8 10 10 10 10 11 11 8 8 7 6 10 12 14 13 8 13 14 10 13 15 12 13 13 7 6 8 10 9 11 12 10 11 10 9 10 6 15 28 27 22 23 22 19 22 27 29 28 28 29 32 35 36 35 31 26 22 21 20 20 21 21 20 20 19 19 17 14 13 12 12 11 10 8 7 6 4 4 5 7
5 6 7 8 8 9 10 10 11 12 13 11 8 7 8 7 7 9 12 13 11 7 10 13 10 11 13 12 13 12 8 9 9 12 11 13 14 10 12 11 10 10 8 15 20 20 23 23 21 19 21 28 29 28 30 31 33 36 38 37 34 28 24 23 23 22 22 22 22 21 19 17 16 16 16 16 14 13 11 8 7 6 5 7 8 8
5 7 9 9 9 10 11 11 10 12 12 10 7 6 6 7 7 9 14 16 10 5 8 14 10 8 10 11 13 11 8 7 7 11 11 14 15 11 13 12 11 13 12 14 14 14 18 21 23 20 18 25 30 29 29 31 35 38 38 37 34 29 26 25 24 24 23 21 19 18 17 17 18 18 15 12 11 11 11 9 7 7 6 8 9 9
4 7 10 10 9 10 11 11 10 9 8 8 6 5 6 8 7 5 10 14 7 3 7 12 7 4 6 8 10 10 7 6 7 10 10 13 16 15 14 12 13 16 15 14 13 12 16 19 21 20 20 24 29 27 27 29 33 37 37 36 36 32 30 28 26 24 22 19 17 18 20 21 20 17 13 12 14 13 13 11 9 8 7 7 7 8
8 9 10 11 12 12 11 10 10 7 6 7 7 7 6 8 9 7 8 9 6 4 3 9 4 4 4 5 7 7 3 4 6 9 7 9 15 14 12 12 14 17 16 15 13 11 14 16 19 22 23 25 26 26 27 30 34 37 37 36 36 34 33 32 28 24 22 22 23 24 25 24 22 19 17 18 18 16 13 13 12 11 9 9 8 8
11 12 9 11 13 14 11 9 9 7 4 5 6 8 8 10 12 10 10 9 6 6 3 6 4 4 5 3 5 6 6 5 3 7 7 8 14 14 13 13 14 15 15 15 14 13 12 14 18 22 24 25 26 28 28 30 33 36 37 36 35 34 34 32 30 28 27 28 28 27 26 25 23 20 18 20 21 18 16 15 14 12 11 11 11 10
9 12 10 12 14 14 12 9 11 8 4 3 4 5 7 10 13 11 9 7 2 3 4 3 5 2 5 4 5 6 6 8 6 7 7 10 15 14 13 14 14 14 14 14 13 13 12 14 17 20 23 27 29 31 29 28 31 33 36 36 35 35 33 32 31 30 29 29 27 26 26 26 25 21 18 19 20 19 18 16 15 14 12 11 11 10
8 12 11 12 11 10 10 8 10 8 5 4 4 5 9 10 12 10 6 5 3 3 5 0 6 2 4 5 6 7 7 8 8 6 8 13 16 15 13 14 15 15 15 14 14 14 13 15 18 20 24 29 32 32 30 31 33 34 35 36 35 34 34 33 31 29 28 27 27 27 26 26 25 23 22 22 21 19 15 14 15 15 14 12 10 10
8 11 10 10 6 5 6 6 6 6 3 4 3 6 11 11 12 10 5 5 3 2 5 3 5 3 3 6 6 7 8 8 7 5 12 18 18 15 14 15 14 14 14 14 15 14 13 15 21 24 26 30 33 32 32 35 37 37 36 35 34 35 35 33 31 30 28 27 28 28 28 27 26 24 24 23 21 18 15 15 17 16 15 13 11 10
6 7 9 8 6 5 4 4 6 5 3 5 6 8 9 10 11 9 6 4 1 2 5 4 3 3 3 7 4 5 8 8 6 5 13 18 18 16 16 15 14 12 11 12 14 14 15 21 25 24 25 29 30 30 33 36 38 37 36 36 37 38 37 35 33 32 29 28 30 31 30 29 27 25 24 23 21 18 17 17 16 15 14 13 11 10
8 6 6 6 5 4 3 0 3 4 6 6 7 8 7 8 8 6 4 3 4 1 5 3 1 3 1 6 1 2 5 5 1 7 14 15 15 16 16 14 13 11 9 10 11 11 14 22 24 21 21 26 28 28 31 34 36 35 34 35 38 37 36 34 33 31 31 31 31 31 31 30 29 27 25 24 22 19 18 18 16 14 15 14 12 12
11 7 3 3 5 3 2 3 3 7 9 6 5 5 3 5 5 4 2 2 3 3 5 5 4 4 3 5 1 4 2 4 6 11 17 15 14 15 13 12 12 10 10 9 9 9 10 13 17 18 20 25 28 28 28 29 31 31 31 33 33 32 32 32 31 32 33 32 31 31 31 31 31 29 27 26 24 22 21 20 19 18 17 14 12 11
8 7 5 3 3 4 2 4 5 6 6 6 5 4 2 2 3 2 3 3 3 4 5 6 7 5 4 4 2 7 7 9 9 13 19 16 14 14 12 12 11 10 11 10 8 9 8 8 11 15 20 23 25 26 25 25 26 27 29 31 30 29 29 29 30 32 32 31 31 32 32 32 31 28 26 26 26 24 22 21 21 19 17 16 13 11
4 5 7 5 2 4 4 4 4 4 5 7 6 4 4 1 1 2 3 2 2 4 7 7 6 4 2 2 3 8 8 11 14 16 18 16 13 13 11 10 10 10 11 10 9 9 8 8 11 15 16 16 20 23 23 23 22 23 26 29 29 27 26 27 28 31 31 30 31 32 31 30 29 28 27 27 26 24 22 21 20 18 18 19 17 13
3 4 6 6 3 6 7 7 6 5 4 5 5 4 4 4 2 3 2 3 3 3 5 7 5 3 2 2 1 7 9 11 15 16 16 15 13 12 10 9 8 8 8 7 7 8 7 7 9 11 10 10 15 19 20 20 18 19 23 25 26 26 25 25 27 29 30 29 30 30 29 27 27 27 26 25 24 23 21 20 19 19 19 20 19 16
3 4 6 9 8 8 9 9 8 6 5 2 3 4 4 4 4 2 2 4 3 1 2 2 2 1 3 2 1 10 13 13 14 16 15 14 13 11 9 8 7 5 5 5 5 6 6 8 9 11 12 12 14 16 16 16 14 14 19 22 24 24 24 24 26 27 27 27 28 28 27 26 26 26 24 23 23 21 20 19 20 21 21 21 20 17
3 5 4 7 10 11 10 9 7 5 3 2 1 4 6 6 5 3 2 1 4 2 2 1 0 3 1 2 6 10 14 15 14 14 15 12 11 10 8 7 6 5 5 5 5 5 6 10 13 14 14 15 16 16 16 15 12 12 16 19 22 22 22 23 24 24 24 24 26 26 25 24 24 24 23 22 22 20 19 19 20 22 21 21 19 17
2 5 6 3 6 9 9 9 8 8 6 3 2 4 4 5 2 3 1 1 3 1 2 1 3 2 3 1 5 8 8 14 16 13 13 11 9 8 6 5 6 5 5 5 5 5 6 10 13 13 14 15 17 17 17 16 13 11 14 19 21 21 22 22 22 22 22 23 24 24 23 23 22 23 23 22 22 21 20 20 20 21 21 19 18 17
0 2 6 4 3 5 5 8 7 7 5 5 4 3 2 3 2 1 1 3 1 2 1 1 2 4 3 1 2 3 4 8 15 13 12 10 7 5 4 5 6 6 6 6 6 5 6 8 11 12 13 13 13 15 17 19 18 14 15 20 22 21 21 21 20 21 22 22 23 23 22 21 20 23 24 22 22 21 20 21 20 20 19 18 17 18
3 2 5 5 3 4 2 4 6 5 6 5 3 2 2 3 4 1 1 3 3 1 1 1 2 2 2 5 3 6 2 5 12 12 11 9 6 5 4 5 5 5 5 5 5 5 5 7 10 11 12 12 13 15 18 21 22 18 17 22 23 21 20 20 19 20 21 21 21 22 21 20 21 23 22 21 21 21 21 20 19 18 18 17 18 18
1 4 3 5 5 4 2 2 4 4 5 4 3 3 2 1 3 3 1 2 4 3 2 2 2 2 3 6 4 8 6 7 10 11 10 8 7 6 4 5 5 4 5 4 5 5 4 7 10 10 12 14 16 17 18 19 21 19 19 22 22 20 19 19 19 19 20 19 20 22 21 19 21 22 21 21 20 20 20 19 18 17 17 17 17 18
2 2 4 2 2 0 1 5 5 2 3 4 5 4 4 4 4 3 2 3 3 4 4 5 2 2 4 5 3 6 6 7 9 10 9 7 6 6 4 5 5 4 4 4 5 5 4 5 7 8 10 13 14 13 12 12 15 18 19 22 22 20 19 19 18 19 19 19 20 21 21 20 22 22 21 20 19 19 20 19 18 17 16 16 17 17
1 0 1 2 3 3 1 7 8 9 10 6 2 3 3 5 5 3 3 4 2 3 1 4 3 2 4 5 4 7 7 7 7 8 8 6 5 5 5 4 5 5 5 5 4 4 4 6 6 5 7 8 8 8 7 3 5 11 17 20 21 20 19 19 18 18 19 20 21 21 20 21 21 21 20 19 18 19 20 19 17 16 15 16 17 17
2 2 2 1 3 2 4 8 9 10 10 5 3 3 1 2 4 5 5 4 3 1 1 4 2 2 1 3 4 8 9 9 8 6 4 6 5 5 5 5 6 6 6 7 6 4 6 8 7 6 6 8 9 12 12 8 8 12 15 18 21 21 22 22 21 20 21 21 21 20 20 20 20 20 19 19 18 18 19 18 16 16 15 14 15 17
1 2 2 2 3 4 5 6 7 7 6 2 4 7 5 6 4 2 3 4 3 2 3 5 2 1 2 2 6 9 9 11 10 5 2 6 7 7 7 7 7 7 7 8 7 6 7 7 7 7 7 7 8 10 12 14 17 18 15 15 18 18 17 17 18 20 23 23 21 20 19 18 19 20 19 18 18 17 17 16 15 14 13 12 14 16
1 1 2 4 3 2 1 1 2 3 3 2 6 10 9 10 10 3 3 4 2 1 2 4 4 4 4 5 8 8 6 9 9 4 4 8 9 10 10 9 8 8 8 8 7 7 8 8 9 11 10 7 6 5 8 13 17 18 14 12 14 14 13 12 9 7 10 14 17 19 19 17 17 19 19 17 15 15 14 13 13 13 11 11 12 11
3 3 3 3 1 3 3 2 0 0 2 3 8 13 12 11 10 6 3 3 3 2 4 2 6 10 7 6 8 6 6 8 9 7 8 9 10 12 12 12 11 10 9 8 8 8 8 7 7 8 7 7 9 10 11 15 18 18 17 18 17 14 13 14 12 10 8 6 6 7 12 15 15 15 15 14 14 13 12 11 12 13 12 10 10 9
4 2 2 3 4 3 4 4 3 4 4 6 9 12 12 12 11 9 4 1 5 5 2 0 8 11 7 5 8 7 6 8 9 9 9 8 10 12 12 13 14 14 13 13 12 10 9 6 5 6 6 7 12 15 17 20 21 20 20 19 18 16 14 14 14 12 9 9 6 4 2 6 11 14 12 11 12 13 11 11 11 11 10 10 11 11
3 2 2 2 5 6 1 4 5 5 4 6 8 10 11 12 11 9 4 1 5 6 4 5 9 9 6 7 8 6 7 9 10 10 9 10 12 13 13 15 14 14 15 15 14 13 12 10 9 11 14 16 17 18 19 20 20 20 21 20 20 20 18 16 15 12 10 11 12 8 4 1 2 7 10 12 12 11 10 10 10 10 10 9 11 13
2 1 3 6 7 7 3 3 7 8 1 5 6 9 10 10 10 10 7 3 9 11 11 13 14 9 4 6 7 6 7 10 10 10 11 12 13 13 14 14 13 14 15 15 14 14 13 13 14 17 20 23 25 26 25 22 20 19 19 19 20 20 18 17 17 15 12 11 9 8 9 7 3 2 3 7 11 12 10 9 9 9 9 6 7 12
3 3 3 3 6 4 1 2 2 6 5 1 5 8 7 7 8 9 8 6 8 11 13 17 16 8 2 4 6 6 8 11 11 11 11 10 11 12 13 13 12 14 15 14 13 13 12 13 16 19 22 23 25 28 29 28 27 26 22 17 17 19 19 18 19 18 15 12 10 8 9 10 7 4 1 1 4 10 10 8 8 7 6 5 4 7
2 3 5 3 1 1 3 3 6 5 5 4 8 10 9 4 5 4 3 4 4 7 12 14 11 6 3 5 6 8 11 14 13 12 11 10 11 12 13 12 12 13 13 12 11 11 11 12 14 18 20 21 24 27 28 28 29 31 28 20 15 18 21 20 19 19 17 13 10 9 10 10 8 6 4 2 1 4 6 7 7 6 5 4 3 3
3 3 2 3 2 2 4 4 5 5 6 5 5 9 10 2 5 5 4 5 4 4 6 7 5 4 4 6 8 11 14 14 12 10 10 10 11 12 11 11 11 11 11 10 9 9 9 11 14 17 19 20 23 24 25 27 27 28 30 28 24 23 25 26 25 25 23 20 16 13 11 10 7 6 6 5 3 2 3 3 4 5 6 5 4 2
4 5 3 2 2 2 7 8 3 5 4 1 3 9 8 1 7 6 5 7 6 3 4 6 5 4 6 8 11 13 13 11 11 10 9 9 9 9 10 10 9 9 9 9 9 8 8 11 14 18 20 22 23 25 27 29 28 27 29 32 31 28 28 29 29 28 27 26 24 22 18 16 14 12 7 4 3 3 3 2 1 2 3 4 5 6
4 4 3 2 2 1 5 6 5 3 1 1 3 10 10 8 7 7 7 6 6 9 11 10 8 7 9 10 12 13 13 12 12 11 10 10 9 9 9 8 7 8 7 7 7 7 9 13 16 19 21 21 23 25 28 29 29 29 30 30 30 29 28 28 28 27 25 25 24 24 22 21 20 18 15 12 11 10 9 8 4 1 2 3 4 5
4 4 3 1 1 1 2 3 2 1 1 2 4 9 10 9 9 8 7 7 7 11 12 11 10 10 11 12 11 11 12 12 12 10 10 10 10 9 9 7 6 6 6 6 7 8 10 14 16 17 19 21 23 25 26 26 26 27 29 28 28 28 26 25 26 25 23 22 21 21 20 19 19 18 17 16 15 14 14 13 11 8 7 7 6 5
5 5 3 1 2 2 3 3 1 1 3 4 4 5 6 5 7 6 3 5 5 4 9 11 12 11 11 12 11 10 11 12 10 8 9 10 10 10 10 9 7 7 7 9 11 11 13 15 17 17 19 21 23 22 22 22 22 24 26 26 26 25 25 24 23 22 21 20 19 17 17 17 18 18 17 16 16 16 15 14 14 14 13 13 12 10
5 3 3 3 1 1 3 3 2 1 1 2 3 4 4 3 8 7 2 4 8 5 7 12 12 12 12 12 11 9 10 10 7 5 6 8 9 10 11 11 10 9 10 12 13 13 14 15 16 17 19 21 22 21 20 20 20 21 23 23 22 21 22 22 21 19 19 18 17 16 15 15 15 16 15 14 15 15 15 15 14 14 15 16 16 16
9 6 4 4 2 2 2 3 1 2 1 2 5 6 4 2 8 8 4 3 7 6 8 12 12 11 11 10 9 8 8 7 4 4 5 6 8 8 8 9 10 10 9 9 9 9 10 10 11 12 15 17 18 17 17 17 17 18 18 18 17 17 19 19 17 16 15 15 14 14 14 14 14 15 15 15 15 15 15 15 15 15 15 16 16 17
9 6 5 4 3 2 2 2 2 2 1 2 6 7 5 1 2 5 4 1 3 2 8 10 11 11 9 8 7 6 6 6 5 5 5 6 8 9 9 10 10 9 8 7 7 8 8 9 10 11 12 13 13 12 12 12 12 14 14 14 14 15 16 15 14 13 13 12 13 13 13 14 14 15 16 16 16 16 16 16 16 17 17 17 18 18
5 4 3 4 3 2 2 2 2 1 1 3 6 9 7 2 3 3 1 2 3 4 7 9 10 10 8 6 5 4 5 7 8 8 7 7 8 10 12 14 13 11 11 10 9 10 10 10 10 10 11 11 11 11 10 10 11 12 12 12 13 13 12 11 11 12 13 13 14 16 16 16 16 16 17 18 18 18 18 17 18 18 18 19 19 20
2 2 3 3 3 2 2 3 2 1 2 6 7 7 4 2 3 2 2 3 6 8 8 9 10 10 8 8 7 7 8 9 9 8 7 6 6 7 11 13 13 11 10 11 11 10 10 11 10 10 10 10 10 10 10 10 11 11 9 9 10 11 10 10 11 12 14 15 16 17 18 18 18 18 19 20 20 20 20 20 20 20 20 21 21 22
2 1 2 2 2 2 3 3 2 1 3 7 6 5 4 3 4 4 4 7 9 9 9 10 10 9 10 10 9 10 11 10 9 8 8 7 7 8 10 11 10 10 11 11 10 9 9 10 8 8 9 8 8 8 8 8 9 9 8 7 8 9 10 10 12 13 14 15 16 17 18 18 19 19 19 19 19 20 20 20 20 20 21 22 23 23
3 1 2 1 1 1 3 2 2 1 3 6 6 4 4 4 5 5 6 7 7 8 7 7 7 8 10 11 10 10 10 9 9 8 8 7 6 7 10 10 9 10 12 12 9 8 8 9 7 6 6 6 6 6 6 6 7 7 7 6 7 10 11 12 13 14 15 16 17 18 18 19 20 20 20 20 20 20 21 21 21 21 21 22 22 23
3 4 5 2 3 3 3 3 4 3 5 7 8 7 8 9 9 9 10 8 6 6 6 6 7 7 8 10 10 9 8 7 7 7 6 6 5 7 9 10 9 10 12 12 9 7 7 6 6 6 5 3 4 4 4 4 6 9 10 10 11 13 13 14 15 16 17 18 18 19 20 20 21 21 21 20 20 20 21 21 21 22 23 23 22 21
3 6 6 4 5 6 6 6 6 6 7 9 9 8 9 10 9 10 11 9 6 6 7 7 8 8 8 9 9 7 6 6 7 6 6 6 5 8 11 11 9 9 11 11 8 6 6 4 6 6 3 0 1 2 2 4 8 12 14 15 15 15 15 16 17 18 19 20 20 20 21 21 21 21 21 20 19 19 19 20 21 22 22 22 21 20
4 5 5 4 4 4 4 5 6 6 6 7 8 8 9 10 9 8 8 7 6 7 7 8 9 9 9 9 8 7 7 7 6 5 4 5 6 8 11 10 8 9 10 8 6 4 6 4 7 6 2 1 2 4 6 9 12 13 14 14 15 15 16 16 18 19 19 19 19 20 20 20 21 21 21 21 21 21 21 21 22 22 22 22 22 22
3 4 4 4 4 4 5 5 6 6 6 6 6 6 7 8 8 7 7 6 6 6 7 8 9 7 6 6 7 7 7 7 7 6 5 5 6 8 10 9 9 9 8 6 5 5 5 3 5 3 2 5 9 10 11 11 11 12 13 13 13 14 14 15 16 17 17 17 18 18 18 19 19 20 21 21 22 22 23 23 23 24 24 23 22 23
3 4 3 4 5 5 6 6 6 6 6 7 7 7 6 6 6 7 7 6 6 6 7 8 9 7 6 6 6 7 7 6 5 5 4 4 6 8 10 11 10 9 7 5 4 6 5 1 4 5 8 10 11 10 10 10 11 11 11 11 12 13 13 13 14 14 15 16 15 15 15 16 17 19 21 22 23 23 23 22 22 23 24 24 22 21
5 5 4 4 5 3 3 4 4 4 4 4 6 7 6 6 7 7 6 6 6 6 5 6 7 7 8 10 10 8 6 5 5 6 5 4 8 10 12 12 10 9 8 5 4 7 4 3 5 7 10 10 10 10 10 9 8 8 8 9 10 12 12 12 13 13 14 14 14 14 15 17 18 20 20 21 23 24 24 23 22 22 23 24 22 21
4 4 3 4 4 3 2 2 4 5 4 4 6 6 5 6 7 6 6 6 6 6 6 6 5 5 6 10 14 12 7 6 7 6 5 7 11 12 10 7 5 5 5 4 4 4 4 7 7 7 8 8 9 9 8 6 5 5 7 8 9 10 11 12 12 12 12 14 15 15 16 17 18 18 18 19 20 21 22 23 22 22 22 22 23 23
Wind_Direction
172 196 228 219 223 222 225 225 233 251 250 249 258 263 261 254 247 240 238 239 236 217 202 203 188 196 216 221 236 252 248 260 237 186 155 139 143 144 144 149 135 122 106 86 94 102 99 100 108 109 117 122 122 128 135 132 131 136 141 145 150 158 163 165 165 164 163 162 163 165 161 157 159 159 151 143 142 141 135 130 138 154 171 159 166 185
180 209 228 223 226 229 235 229 224 240 253 260 266 274 279 277 270 265 266 253 231 216 202 195 185 196 211 216 229 241 246 260 226 174 156 147 150 149 145 145 126 112 90 81 90 101 107 109 102 99 118 128 129 137 142 137 136 142 146 146 146 149 157 161 161 160 161 165 166 164 160 155 152 147 142 137 136 134 129 130 127 127 152 153 158 174
200 231 230 222 226 231 239 240 228 230 244 258 266 275 280 278 286 287 286 276 244 207 194 186 188 206 210 213 226 231 221 229 194 159 159 155 154 155 150 146 123 109 98 94 103 112 113 106 103 116 137 135 138 148 146 137 139 147 148 146 144 145 151 155 159 162 163 166 163 153 150 150 143 135 135 130 126 124 117 122 120 104 121 144 157 166
216 234 223 220 228 233 239 242 238 232 238 243 239 256 268 264 275 283 285 282 261 191 167 164 171 235 229 216 229 237 211 198 190 172 163 151 156 163 153 142 127 119 113 111 118 118 111 108 118 143 152 139 142 150 146 140 145 151 151 149 147 147 150 153 156 160 158 156 146 133 134 140 136 130 134 127 118 117 113 115 117 103 103 125 152 164
242 241 214 213 224 232 238 241 240 229 232 242 227 226 252 266 267 270 303 317 334 0 100 124 103 308 271 230 242 268 257 207 194 178 164 136 145 148 124 119 128 126 125 124 126 124 121 128 140 148 148 143 146 150 151 151 153 155 155 152 148 147 150 151 152 151 147 142 135 128 127 129 129 129 137 137 131 129 124 125 128 116 106 113 130 141
241 242 212 207 219 228 233 239 238 214 204 256 238 219 239 272 278 284 314 338 358 338 341 100 105 284 291 269 256 278 287 267 198 162 167 123 117 116 106 115 126 123 127 131 132 133 132 137 136 137 144 148 153 159 159 157 156 156 156 152 148 149 152 153 152 150 145 141 137 135 131 130 133 137 144 145 143 141 132 130 134 126 115 114 112 112
232 236 222 212 212 217 224 235 234 206 174 245 251 236 248 263 271 280 299 317 341 278 288 81 117 251 306 310 265 260 271 266 227 168 155 118 109 114 117 123 127 127 131 130 128 130 134 140 136 140 150 154 160 163 161 160 158 156 155 154 152 153 155 157 158 154 147 141 141 143 141 139 142 146 147 145 142 141 135 133 135 132 129 124 114 111
215 224 232 227 214 209 217 229 220 188 169 218 226 261 272 266 262 262 263 273 255 226 265 139 118 137 294 285 276 272 271 262 232 177 124 108 110 116 119 124 130 135 133 126 128 135 140 148 148 151 157 160 162 161 158 160 159 158 158 156 154 153 154 158 160 157 153 148 147 148 148 147 145 141 140 139 137 136 138 141 140 139 137 132 128 125
210 211 226 238 239 228 221 205 180 156 173 237 206 239 264 269 266 256 230 244 244 201 256 239 127 108 282 269 286 299 288 266 237 166 113 111 116 118 119 125 129 131 128 127 133 138 143 153 156 158 162 162 162 160 158 158 158 159 159 157 155 153 155 158 159 160 163 163 157 152 150 148 143 138 137 138 138 135 137 140 138 136 133 130 133 134
222 204 206 226 246 246 230 171 147 145 197 230 220 238 257 267 273 262 224 223 111 148 240 240 131 114 281 273 282 327 298 265 235 164 120 117 122 124 124 128 129 126 126 131 137 141 151 159 160 162 163 160 160 160 158 158 159 159 160 160 158 157 158 161 164 167 171 171 163 155 153 148 144 142 141 141 142 138 135 134 132 131 132 129 130 133
253 230 199 206 218 241 294 305 154 199 223 216 213 236 258 268 276 271 227 156 91 270 247 234 136 135 239 279 264 55 292 271 122 113 115 115 119 123 127 131 132 131 133 138 139 142 155 157 155 160 162 158 158 160 158 159 161 161 162 162 161 162 163 163 167 170 169 165 159 155 155 152 150 149 148 147 149 147 143 139 136 138 141 139 128 122
256 244 228 201 184 179 275 276 243 232 229 224 211 209 243 280 287 287 270 142 130 251 237 201 198 172 200 265 190 87 2 9 64 114 124 125 126 126 131 134 134 136 136 139 138 139 153 149 145 159 165 159 158 160 160 161 163 163 162 161 161 162 161 161 164 165 164 161 157 156 156 155 155 154 153 153 153 152 150 147 146 147 148 148 140 126
254 232 235 230 169 135 177 238 262 257 231 227 226 176 157 295 308 268 242 199 183 236 236 208 202 195 209 240 135 81 55 37 57 113 127 128 126 125 135 138 135 138 139 144 148 149 159 147 147 169 173 163 159 158 159 160 161 162 161 161 161 162 161 162 163 163 162 159 156 156 157 157 156 155 154 156 157 154 151 151 151 152 151 150 151 145
264 249 245 236 171 142 189 221 232 250 233 218 212 153 150 175 2 274 238 214 217 233 244 239 219 210 240 295 68 80 77 65 70 97 118 122 120 124 137 136 132 140 145 152 155 154 158 156 166 176 171 160 154 152 153 154 157 159 160 161 162 163 166 165 163 163 160 157 156 156 156 156 156 156 157 159 159 155 153 155 155 155 154 151 147 144
241 254 244 237 202 159 195 227 226 242 251 202 175 144 167 166 161 248 200 177 228 255 254 247 230 189 160 219 129 88 74 72 86 98 107 114 120 128 134 131 134 143 142 141 144 148 151 154 164 158 138 131 141 146 148 149 152 156 159 163 163 162 166 166 163 163 161 157 157 156 154 156 158 157 158 159 157 154 153 155 156 156 154 150 143 139
255 251 222 220 215 176 189 222 231 261 293 265 163 153 204 199 170 219 201 167 173 69 340 264 245 221 169 203 55 82 69 60 86 105 107 115 128 133 132 133 136 133 117 113 128 137 127 110 100 100 104 118 135 139 142 146 149 155 161 164 164 163 165 165 165 165 163 159 157 158 156 157 158 158 157 155 154 152 151 154 155 155 152 149 145 143
236 265 264 227 217 200 192 203 208 216 243 289 249 187 223 220 157 134 261 299 90 101 309 11 10 317 9 1 15 63 78 69 75 96 109 117 125 125 130 135 128 120 113 114 127 124 98 92 91 95 108 125 136 139 141 147 151 159 168 167 163 163 163 163 167 169 166 161 158 159 159 157 158 159 157 151 150 149 148 151 154 152 150 149 148 147
228 257 288 274 235 225 200 193 210 207 175 155 238 228 229 223 164 93 177 312 54 148 263 148 156 46 38 329 6 24 57 82 82 88 101 106 112 119 123 116 107 105 96 80 90 91 76 85 94 100 112 124 136 142 142 147 152 158 173 175 168 165 166 164 166 168 167 165 160 159 161 162 161 159 155 149 147 148 148 150 153 152 150 150 150 149
53 280 293 294 263 259 208 182 213 238 210 178 189 210 163 165 198 21 144 188 178 191 207 202 179 74 50 288 61 22 332 80 89 86 86 85 87 98 96 84 80 81 80 73 79 84 79 86 92 101 113 120 134 146 147 153 161 162 172 182 177 171 168 166 164 164 165 165 162 161 162 162 160 157 155 153 152 152 151 151 154 153 151 151 151 150
147 145 284 295 316 324 318 178 196 236 243 218 164 166 169 151 167 178 179 170 151 170 188 353 334 35 354 310 67 122 164 87 93 92 88 87 80 75 73 74 69 63 70 84 95 95 90 92 98 109 121 126 138 160 170 169 170 169 171 180 179 171 167 166 164 161 160 162 162 162 162 159 156 157 159 160 159 156 152 153 156 155 153 154 155 154
167 148 215 291 334 352 336 258 216 195 213 212 158 181 210 139 144 147 242 196 145 135 143 122 327 299 289 322 34 103 108 93 97 96 94 96 93 89 82 81 80 65 60 69 89 102 105 109 119 133 150 160 162 171 178 174 172 172 171 174 171 164 161 161 162 161 160 161 161 160 160 159 158 161 164 166 166 162 157 157 159 157 155 155 155 154
337 164 180 238 321 113 246 296 306 339 282 222 170 183 184 137 128 120 284 255 151 123 149 143 143 240 268 305 27 88 90 87 92 94 96 93 91 94 86 85 87 73 61 62 78 93 98 106 123 140 165 179 180 176 170 168 172 168 161 163 163 159 157 156 158 161 161 161 162 162 162 162 163 165 166 168 169 166 162 160 160 159 157 153 151 151
286 217 159 195 221 181 250 317 335 356 334 304 183 181 171 143 130 127 244 257 52 45 99 111 110 208 267 313 24 70 72 72 72 81 92 92 90 96 87 78 80 71 61 57 56 58 59 67 89 128 154 163 170 172 160 140 153 148 146 155 159 160 160 158 157 161 164 165 165 165 162 161 163 165 166 169 168 166 164 164 162 160 157 153 152 153
300 357 11 316 299 335 16 346 351 8 358 344 346 342 347 166 159 153 184 187 122 100 125 92 88 214 270 347 34 60 62 67 59 43 71 96 97 98 89 69 57 55 57 60 56 49 52 61 82 116 135 124 134 157 160 149 144 146 153 161 161 162 165 165 164 165 167 167 165 163 159 157 160 163 165 167 166 165 166 166 165 163 160 158 158 157
316 15 32 41 358 346 3 358 352 360 7 18 329 335 10 28 28 100 139 119 126 201 156 126 152 189 136 83 69 62 56 66 62 19 6 87 88 90 92 76 53 44 48 57 60 57 53 51 60 70 75 93 125 151 155 153 152 152 162 167 159 155 154 158 164 166 167 165 161 157 153 153 159 163 164 166 166 166 166 165 164 164 163 160 158 158
57 346 66 92 117 183 195 293 254 295 319 347 341 346 15 31 27 44 114 91 88 267 99 120 146 124 108 99 89 83 86 92 92 87 60 66 68 71 77 75 62 53 47 44 44 53 55 39 32 41 53 86 126 132 129 133 131 127 125 122 121 121 114 108 105 114 137 151 152 153 152 151 155 159 162 164 163 161 162 162 160 158 157 155 154 162
70 359 13 54 101 194 158 127 165 23 15 16 6 8 18 23 31 59 92 108 142 122 44 64 136 125 120 118 113 118 121 109 104 99 84 71 67 67 69 68 65 62 53 42 36 45 51 35 26 43 69 115 123 111 107 106 103 100 96 90 93 101 104 102 97 86 79 85 97 127 149 153 153 157 162 164 164 163 158 156 158 160 166 165 163 175
85 349 330 14 317 269 132 91 37 45 45 25 19 27 33 26 32 49 46 121 131 110 43 53 122 121 132 130 121 129 127 113 106 101 96 89 82 78 75 70 65 61 57 51 46 47 52 46 39 52 61 84 94 91 87 86 87 88 87 85 85 90 97 107 113 116 121 128 118 82 102 158 158 159 163 163 164 163 158 157 161 167 178 181 177 181
98 207 181 151 285 296 79 94 75 62 13 3 23 34 35 31 32 34 355 287 117 115 137 124 103 108 131 130 129 149 139 117 110 107 101 92 85 82 78 72 65 62 59 54 49 46 47 46 44 44 38 36 45 55 63 73 81 83 83 82 79 81 92 100 102 106 121 135 139 137 133 117 139 157 166 169 170 170 166 167 170 174 184 191 187 188
354 250 163 167 217 251 246 169 112 102 336 324 26 35 32 37 35 18 352 28 99 112 121 112 100 94 111 127 140 157 132 108 102 99 94 90 89 86 81 77 71 64 58 52 46 42 40 37 35 39 39 36 35 37 39 46 55 63 73 80 77 78 88 93 94 103 116 114 105 115 133 133 105 88 146 166 175 177 173 172 179 186 194 201 201 196
352 309 296 208 211 228 292 338 87 140 174 198 40 32 31 48 41 17 356 19 76 108 117 110 106 103 113 140 139 133 111 99 94 89 85 82 83 83 79 74 68 62 57 51 44 40 37 34 31 34 36 35 36 38 37 38 42 46 52 68 83 88 92 92 89 95 101 99 95 103 117 123 133 149 93 32 160 158 157 165 176 191 201 202 198 192
52 359 332 336 303 14 40 330 266 204 149 76 31 7 354 21 74 50 1 8 49 110 117 109 109 124 148 137 121 100 89 86 83 80 78 71 66 70 72 70 65 61 59 56 49 42 38 34 32 34 34 34 37 40 39 39 42 44 45 54 76 88 87 84 82 83 81 76 84 103 105 101 116 146 166 281 280 139 150 171 180 194 205 193 164 156
102 87 6 4 27 18 355 297 233 167 104 60 6 333 316 283 123 91 65 84 101 109 105 108 122 132 117 101 90 82 79 78 75 72 74 74 69 67 69 70 70 67 63 61 57 48 43 40 37 35 34 35 37 40 41 43 44 44 46 54 66 73 73 72 70 69 65 59 58 69 86 93 95 115 153 185 193 132 135 160 182 208 224 226 226 231
113 120 110 21 42 346 336 341 20 82 82 67 334 328 322 55 109 97 94 120 148 138 92 114 127 103 91 91 89 89 86 84 85 80 76 80 77 71 67 64 68 73 70 65 61 51 46 46 43 40 37 35 37 40 44 46 46 46 49 55 62 63 63 65 64 60 57 54 53 53 55 59 61 63 79 111 106 77 66 68 118 191 225 252 259 258
99 100 107 102 110 47 347 9 44 65 117 187 354 354 2 32 53 72 88 94 115 118 116 124 125 105 97 98 97 98 97 95 94 87 82 84 84 82 75 59 53 60 60 59 61 53 48 49 47 43 39 37 38 42 44 44 45 47 49 51 55 56 57 58 55 51 49 48 47 46 44 44 46 45 42 42 49 48 38 34 39 29 296 298 296 278
110 93 86 92 93 90 48 49 93 152 332 17 13 3 9 19 15 29 62 64 83 119 127 124 117 109 105 101 96 97 97 92 84 75 73 78 82 87 88 76 63 57 48 49 58 55 52 53 52 48 43 40 39 40 41 41 41 45 47 48 49 49 49 51 47 41 39 38 36 35 33 33 32 28 24 26 31 34 33 31 28 18 353 332 323 300
113 119 102 53 12 88 116 84 80 133 358 7 12 351 350 357 340 337 66 59 33 105 129 120 114 112 105 98 95 95 93 85 74 66 71 79 86 95 102 106 105 99 92 86 80 73 64 57 54 51 49 46 42 41 40 37 37 41 43 45 48 47 44 44 42 37 33 30 28 25 22 21 19 15 13 14 15 15 15 13 12 10 3 353 346 334
63 100 120 127 43 54 119 105 58 87 39 355 324 302 296 312 318 316 88 54 346 355 109 116 114 109 104 103 103 96 86 79 73 75 86 90 96 102 107 114 120 120 115 106 99 90 78 66 56 51 49 47 44 42 40 35 32 36 37 37 42 46 44 41 37 33 30 26 23 20 17 14 12 8 7 7 7 3 359 356 353 351 350 347 344 340
32 38 65 102 102 47 88 111 99 100 109 305 302 295 274 299 332 344 61 62 324 353 85 106 110 106 107 112 109 93 86 88 101 115 108 109 115 116 116 120 124 128 129 125 118 110 96 81 72 63 54 49 42 37 38 36 33 37 40 37 39 42 39 33 27 24 22 18 14 11 8 6 5 3 2 0 358 353 348 345 340 335 332 331 329 326
22 22 28 46 71 56 40 64 77 78 56 295 301 299 279 210 27 26 70 164 265 50 84 99 105 103 105 110 103 94 107 126 137 131 122 117 114 111 109 110 113 112 105 104 116 121 108 90 84 78 65 55 48 43 45 47 44 45 47 45 43 38 30 23 18 15 14 12 6 1 357 357 356 355 354 352 349 347 344 341 338 334 329 325 321 315
17 16 31 40 55 82 94 92 83 65 304 285 286 285 276 216 101 65 85 186 172 113 99 101 103 99 96 92 81 80 106 120 124 126 125 112 102 100 99 99 99 91 73 66 80 100 100 86 78 77 69 57 52 52 56 57 54 51 51 46 38 31 25 23 23 18 13 9 6 3 2 2 0 356 352 348 344 340 337 336 336 335 333 328 323 316
5 9 38 29 6 24 87 102 86 61 289 284 288 292 302 75 103 94 74 80 83 86 90 95 99 99 95 92 93 98 104 109 112 115 114 106 99 99 101 102 106 104 86 69 64 73 86 84 73 72 71 57 47 49 54 56 51 45 47 45 33 26 25 23 19 10 3 1 0 360 0 360 358 355 351 350 349 343 338 334 329 327 328 328 326 323
359 31 62 26 344 22 61 71 85 101 299 311 329 348 1 56 113 120 91 80 80 83 87 90 95 101 101 96 96 100 103 104 103 98 91 88 87 87 91 98 108 112 101 81 59 48 70 85 78 70 69 57 49 51 52 53 44 35 39 41 24 17 18 13 5 358 355 357 356 356 356 354 352 351 349 348 347 343 339 337 332 329 328 326 325 324
355 53 100 19 334 47 66 67 101 136 323 350 32 60 35 45 82 93 85 79 71 68 75 80 81 91 102 101 95 95 97 98 100 101 101 101 100 95 89 85 87 95 94 84 62 38 55 79 84 75 65 50 45 54 59 58 41 19 19 22 12 11 12 7 2 0 0 1 357 354 353 349 347 346 345 344 341 336 334 335 333 331 329 325 322 321
21 82 104 74 42 74 99 109 105 82 34 34 56 68 56 52 59 69 76 77 65 58 64 66 60 66 86 95 94 93 95 95 98 100 100 99 98 101 98 85 76 85 88 81 65 38 39 69 93 83 67 42 25 29 34 38 21 7 11 17 18 19 17 9 5 2 0 358 354 350 347 344 342 341 339 339 338 335 332 330 328 327 327 322 316 316
64 86 98 91 78 75 75 76 76 68 58 56 63 66 61 58 58 65 72 73 66 66 68 67 62 58 63 76 82 81 78 83 89 93 98 101 96 96 98 90 77 82 84 75 63 33 13 49 107 102 89 65 307 320 340 18 24 24 24 21 17 15 12 7 3 360 355 352 348 345 344 341 339 337 335 334 335 335 333 332 329 330 331 328 322 322
41 54 74 101 115 104 87 83 87 88 80 73 72 71 67 65 63 67 75 79 78 77 76 76 75 68 64 70 76 74 67 66 68 66 81 108 108 98 98 94 86 90 89 79 66 16 351 48 105 118 145 290 20 39 49 43 33 27 23 19 15 10 5 2 0 356 353 350 347 344 343 341 337 334 333 332 331 329 328 329 330 331 333 334 332 330
19 35 57 88 96 95 107 114 108 99 92 84 80 78 76 77 76 76 84 90 88 85 85 87 87 84 80 82 85 84 74 64 59 46 38 61 79 80 83 84 82 87 90 80 54 0 343 52 102 103 56 53 54 52 50 40 29 21 18 17 15 9 5 4 1 356 351 346 342 339 337 336 335 333 333 332 330 329 326 325 327 327 328 329 330 328
34 42 55 90 91 91 111 119 111 99 91 84 82 84 86 89 87 83 85 84 81 83 87 88 90 94 101 104 103 98 89 80 70 52 34 59 76 68 63 63 60 56 61 64 24 335 323 82 100 63 52 55 51 45 41 34 24 17 13 11 7 2 360 358 354 350 346 341 338 334 332 334 336 334 332 328 326 326 324 322 322 321 320 321 323 323
52 55 51 76 90 100 123 118 110 110 104 94 99 106 110 112 106 97 93 91 87 86 83 80 87 98 101 102 104 104 103 100 78 50 38 75 91 78 62 53 39 26 32 41 347 318 322 106 93 59 51 50 41 39 39 29 14 10 12 10 6 2 359 355 349 345 341 337 335 335 337 339 338 333 328 323 321 319 316 314 314 315 314 316 315 312
69 84 86 96 105 119 136 110 110 123 131 129 128 129 131 133 129 120 116 121 127 133 133 127 127 122 98 93 100 104 105 99 86 66 50 77 90 86 71 53 28 2 1 347 324 344 58 94 84 60 52 42 30 32 28 3 351 24 35 22 13 8 4 358 352 343 334 328 326 329 332 330 324 317 314 313 313 312 310 309 310 310 309 310 309 306